When you browse on this site, cookies collect data to enhance your experience and personalize the content and advertising you see.
Visit our Privacy Policy to learn more. By continuing to use the site, you agree to this use of cookies and data.
  • In Switzerland
  • List of Countries
  • For 7 days
  • Water Temperature
  • Satellite Maps
  • Weather Map
  • Weather Widgets
  • user-avatar
    Login

    Hourly Weather Perth

    Today, 12 December, Wednesday

    Time Temperature Precipitation Wind Pressure Humidity
    00:00 +18°C° 0 mm 3 mps 759 mmHg 88%
    01:00 +18°C° 0 mm 3 mps 759 mmHg 90%
    02:00 +17°C° 0 mm 2 mps 759 mmHg 92%
    03:00 +17°C° 0 mm 2 mps 759 mmHg 92%
    04:00 +17°C° 0 mm 2 mps 760 mmHg 93%
    05:00 +17°C° 0 mm 2 mps 760 mmHg 93%
    06:00 +18°C° 0 mm 2 mps 760 mmHg 84%
    07:00 +20°C° 0 mm 3 mps 760 mmHg 75%
    08:00 +22°C° 0 mm 3 mps 761 mmHg 66%
    09:00 +24°C° 0 mm 3 mps 761 mmHg 59%
    10:00 +26°C° 0 mm 3 mps 761 mmHg 52%
    11:00 +27°C° 0 mm 3 mps 761 mmHg 45%
    12:00 +29°C° 0 mm 3 mps 760 mmHg 42%
    13:00 +30°C° 0 mm 4 mps 760 mmHg 38%
    14:00 +32°C° 0 mm 5 mps 759 mmHg 35%
    15:00 +30°C° 0 mm 5 mps 759 mmHg 36%
    16:00 +30°C° 0 mm 5 mps 759 mmHg 38%
    17:00 +29°C° 0 mm 6 mps 759 mmHg 39%
    18:00 +27°C° 0 mm 5 mps 759 mmHg 44%
    19:00 +25°C° 0 mm 5 mps 759 mmHg 48%
    20:00 +23°C° 0 mm 4 mps 759 mmHg 53%
    21:00 +23°C° 0 mm 4 mps 760 mmHg 51%
    22:00 +22°C° 0 mm 4 mps 760 mmHg 50%
    23:00 +22°C° 0 mm 4 mps 761 mmHg 48%

    Tomorrow, 13 December, Thursday

    Time Temperature Precipitation Wind Pressure Humidity
    00:00 +22°C° 0 mm 5 mps 760 mmHg 49%
    01:00 +21°C° 0 mm 6 mps 760 mmHg 50%
    02:00 +21°C° 0 mm 6 mps 760 mmHg 51%
    03:00 +20°C° 0 mm 6 mps 760 mmHg 53%
    04:00 +19°C° 0 mm 6 mps 760 mmHg 54%
    05:00 +19°C° 0 mm 6 mps 760 mmHg 56%
    06:00 +20°C° 0 mm 6 mps 761 mmHg 52%
    07:00 +22°C° 0 mm 6 mps 761 mmHg 48%
    08:00 +23°C° 0 mm 5 mps 761 mmHg 44%
    09:00 +27°C° 0 mm 5 mps 760 mmHg 40%
    10:00 +29°C° 0 mm 4 mps 760 mmHg 35%
    11:00 +33°C° 0 mm 3 mps 760 mmHg 30%
    12:00 +35°C° 0 mm 3 mps 759 mmHg 27%
    13:00 +36°C° 0 mm 3 mps 759 mmHg 25%
    14:00 +38°C° 0 mm 3 mps 758 mmHg 22%
    15:00 +37°C° 0 mm 4 mps 758 mmHg 23%
    16:00 +37°C° 0 mm 4 mps 757 mmHg 23%
    17:00 +36°C° 0 mm 5 mps 757 mmHg 24%
    18:00 +34°C° 0 mm 5 mps 757 mmHg 26%
    19:00 +32°C° 0 mm 5 mps 757 mmHg 28%
    20:00 +29°C° 0 mm 5 mps 757 mmHg 30%
    21:00 +29°C° 0 mm 5 mps 757 mmHg 30%
    22:00 +28°C° 0 mm 4 mps 757 mmHg 30%
    23:00 +28°C° 0 mm 4 mps 757 mmHg 31%

    Day after tomorrow, 14 December, Friday

    Time Temperature Precipitation Wind Pressure Humidity
    00:00 +28°C° 0 mm 4 mps 756 mmHg 28%
    01:00 +28°C° 0 mm 4 mps 756 mmHg 26%
    02:00 +28°C° 0 mm 4 mps 755 mmHg 23%
    03:00 +28°C° 0 mm 4 mps 755 mmHg 22%
    04:00 +27°C° 0 mm 4 mps 755 mmHg 21%
    05:00 +27°C° 0 mm 3 mps 755 mmHg 20%
    06:00 +29°C° 0 mm 4 mps 755 mmHg 19%
    07:00 +30°C° 0 mm 4 mps 756 mmHg 19%
    08:00 +33°C° 0 mm 5 mps 756 mmHg 18%
    09:00 +35°C° 0 mm 4 mps 756 mmHg 18%
    10:00 +37°C° 0 mm 4 mps 756 mmHg 17%
    11:00 +40°C° 0 mm 4 mps 755 mmHg 16%
    12:00 +40°C° 0 mm 4 mps 755 mmHg 16%
    13:00 +41°C° 0 mm 4 mps 754 mmHg 16%
    14:00 +42°C° 0 mm 4 mps 753 mmHg 16%
    15:00 +41°C° 0 mm 4 mps 753 mmHg 17%
    16:00 +41°C° 0 mm 4 mps 752 mmHg 17%
    17:00 +41°C° 0 mm 4 mps 752 mmHg 18%
    18:00 +38°C° 0 mm 4 mps 751 mmHg 20%
    19:00 +36°C° 0 mm 4 mps 751 mmHg 22%
    20:00 +34°C° 0 mm 4 mps 751 mmHg 24%
    21:00 +33°C° 0 mm 4 mps 751 mmHg 24%
    22:00 +33°C° 0 mm 4 mps 751 mmHg 23%
    23:00 +33°C° 0 mm 4 mps 751 mmHg 23%

    15 December, Saturday

    Time Temperature Precipitation Wind Pressure Humidity
    00:00 +33°C° 0 mm 5 mps 750 mmHg 22%
    01:00 +32°C° 0 mm 5 mps 750 mmHg 21%
    02:00 +32°C° 0 mm 5 mps 749 mmHg 21%
    03:00 +32°C° 0 mm 5 mps 749 mmHg 21%
    04:00 +30°C° 0 mm 4 mps 749 mmHg 22%
    05:00 +30°C° 0 mm 4 mps 749 mmHg 23%
    06:00 +32°C° 0 mm 5 mps 749 mmHg 21%
    07:00 +33°C° 0 mm 5 mps 750 mmHg 19%
    08:00 +34°C° 0 mm 5 mps 750 mmHg 17%
    09:00 +36°C° 0 mm 6 mps 749 mmHg 18%
    10:00 +38°C° 0 mm 6 mps 749 mmHg 18%
    11:00 +39°C° 0 mm 7 mps 749 mmHg 19%
    12:00 +38°C° 0.1 mm 7 mps 748 mmHg 24%
    13:00 +35°C° 0.1 mm 7 mps 748 mmHg 30%
    14:00 +34°C° 0.1 mm 7 mps 747 mmHg 35%
    15:00 +32°C° 0 mm 7 mps 747 mmHg 42%
    16:00 +29°C° 0 mm 8 mps 747 mmHg 48%
    17:00 +28°C° 0 mm 8 mps 748 mmHg 54%
    18:00 +26°C° 0 mm 8 mps 748 mmHg 62%
    19:00 +23°C° 0 mm 8 mps 749 mmHg 70%
    20:00 +21°C° 0 mm 8 mps 750 mmHg 79%
    21:00 +21°C° 0 mm 8 mps 750 mmHg 79%
    22:00 +20°C° 0 mm 8 mps 751 mmHg 80%
    23:00 +20°C° 0 mm 8 mps 751 mmHg 80%

    16 December, Sunday

    Time Temperature Precipitation Wind Pressure Humidity
    00:00 +20°C° 0.1 mm 8 mps 751 mmHg 80%
    01:00 +20°C° 0.1 mm 8 mps 751 mmHg 80%
    02:00 +18°C° 0.1 mm 8 mps 751 mmHg 79%
    03:00 +18°C° 0.1 mm 8 mps 751 mmHg 78%
    04:00 +18°C° 0.1 mm 7 mps 752 mmHg 77%
    05:00 +18°C° 0.1 mm 7 mps 752 mmHg 76%
    06:00 +18°C° 0.2 mm 7 mps 752 mmHg 73%
    07:00 +18°C° 0.2 mm 7 mps 753 mmHg 70%
    08:00 +18°C° 0.2 mm 7 mps 754 mmHg 68%
    09:00 +20°C° 0.1 mm 7 mps 753 mmHg 63%
    10:00 +21°C° 0.1 mm 8 mps 753 mmHg 58%
    11:00 +21°C° 0.1 mm 8 mps 753 mmHg 53%
    12:00 +21°C° 0.1 mm 8 mps 753 mmHg 52%
    13:00 +21°C° 0.1 mm 8 mps 752 mmHg 52%
    14:00 +22°C° 0.1 mm 8 mps 752 mmHg 51%
    15:00 +21°C° 0.1 mm 8 mps 752 mmHg 56%
    16:00 +19°C° 0.1 mm 9 mps 752 mmHg 60%
    17:00 +18°C° 0.1 mm 9 mps 752 mmHg 64%
    18:00 +18°C° 0.5 mm 8 mps 752 mmHg 70%
    19:00 +17°C° 0.5 mm 8 mps 752 mmHg 75%
    20:00 +17°C° 0.5 mm 8 mps 752 mmHg 81%
    21:00 +17°C° 0.8 mm 8 mps 752 mmHg 81%
    22:00 +17°C° 0.8 mm 8 mps 752 mmHg 81%
    23:00 +18°C° 0.8 mm 8 mps 752 mmHg 82%

    17 December, Monday

    Time Temperature Precipitation Wind Pressure Humidity
    00:00 +17°C° 0.7 mm 7 mps 752 mmHg 83%
    01:00 +17°C° 0.7 mm 7 mps 751 mmHg 84%
    02:00 +17°C° 0.7 mm 6 mps 751 mmHg 85%
    03:00 +17°C° 0.4 mm 6 mps 751 mmHg 85%
    04:00 +17°C° 0.4 mm 6 mps 752 mmHg 85%
    05:00 +17°C° 0.4 mm 6 mps 752 mmHg 85%
    06:00 +19°C° 0.2 mm 6 mps 752 mmHg 80%
    07:00 +20°C° 0.2 mm 7 mps 753 mmHg 75%
    08:00 +21°C° 0.2 mm 7 mps 753 mmHg 70%
    09:00 +22°C° 0.1 mm 7 mps 754 mmHg 64%
    10:00 +23°C° 0.1 mm 7 mps 754 mmHg 58%
    11:00 +26°C° 0.1 mm 7 mps 754 mmHg 51%
    12:00 +26°C° 0 mm 7 mps 754 mmHg 52%
    13:00 +26°C° 0 mm 7 mps 754 mmHg 53%
    14:00 +26°C° 0 mm 7 mps 754 mmHg 54%
    15:00 +24°C° 0 mm 7 mps 754 mmHg 55%
    16:00 +24°C° 0 mm 7 mps 754 mmHg 57%
    17:00 +24°C° 0 mm 7 mps 754 mmHg 58%
    18:00 +23°C° 0 mm 6 mps 755 mmHg 64%
    19:00 +22°C° 0 mm 6 mps 755 mmHg 70%
    20:00 +21°C° 0 mm 5 mps 756 mmHg 76%
    21:00 +20°C° 0 mm 5 mps 756 mmHg 78%
    22:00 +20°C° 0 mm 5 mps 757 mmHg 80%
    23:00 +20°C° 0 mm 5 mps 757 mmHg 82%
    Show more